Regional Weather Roundup
Issued by NWS

Home | Current Version | Previous Version | Graphics & Text | Print | Product List | Glossary On
Versions: 1 2 3 4 5 6 7 8 9 10 11 12 13 14 15 16 17 18 19 20 21 22 23 24 25 26 27 28 29 30 31 32 33 34 35 36 37 38 39 40 41 42 43 44 45 46 47 48 49 50
431
ASUS45 KPSR 260610
RWRAZ

ARIZONA HOURLY REGIONAL WEATHER ROUNDUP
NATIONAL WEATHER SERVICE PHOENIX AZ
1100 PM MST MON SEP 25 2017

NOTE: FAIR INDICATES FEW OR NO CLOUDS BELOW 12,000 FEET WITH NO
SIGNIFICANT WEATHER AND/OR OBSTRUCTIONS TO VISIBILITY.

AZZ001>003-036-260700-
NORTHWEST ARIZONA

CITY           SKY/WX    TMP DP  RH WIND       PRES   REMARKS
BULLHEAD CITY  PTCLDY    77  23  13 N10       29.79S
KINGMAN        CLEAR     55  26  32 E12       29.93R
6HR MIN TEMP:  55; 6HR MAX TEMP:  75;

$$

AZZ004>008-015-016-018-260700-
NORTH CENTRAL ARIZONA

CITY           SKY/WX    TMP DP  RH WIND       PRES   REMARKS
GRAND CANYON   CLEAR     34  16  47 NE3       30.08S
6HR MIN TEMP:  32; 6HR MAX TEMP:  61;

WILLIAMS       PTCLDY    41  14  33 S9        30.05S
PRESCOTT       CLEAR     49  27  42 S6        29.96S
6HR MIN TEMP:  49; 6HR MAX TEMP:  73;

FLAGSTAFF      PTCLDY    37  14  38 CALM      30.08S
6HR MIN TEMP:  37; 6HR MAX TEMP:  60;

PAYSON           N/A     55  10  16 NE5       29.98S
PAGE           CLEAR     57  23  26 CALM      30.00R
6HR MIN TEMP:  57; 6HR MAX TEMP:  70;

$$

AZZ009>014-017-260700-
NORTHEAST ARIZONA

CITY           SKY/WX    TMP DP  RH WIND       PRES   REMARKS
WINSLOW        CLEAR     45  10  24 S3        30.00R
6HR MIN TEMP:  43; 6HR MAX TEMP:  71;

SAINT JOHNS    CLEAR     46  14  27 SW6       30.00S
6HR MIN TEMP:  44; 6HR MAX TEMP:  70;

WINDOW ROCK    CLEAR     38  18  44 CALM      30.10R
6HR MIN TEMP:  36; 6HR MAX TEMP:  65;

SHOW LOW       CLEAR     41  27  56 CALM      30.06S
$$

AZZ540-542>544-546-548-260700-
GREATER PHOENIX AREA

CITY           SKY/WX    TMP DP  RH WIND       PRES   REMARKS
PHOENIX        PTCLDY    75  22  13 W5        29.75R
6HR MIN TEMP:  74; 6HR MAX TEMP:  88;

BUCKEYE        CLEAR     66  16  14 N7        29.77R
LUKE AFB       CLEAR     73  26  17 CALM      29.74S
6HR MIN TEMP:  69; 6HR MAX TEMP:  88;

DEER VALLEY    CLEAR     68  21  16 CALM      29.77R
6HR MIN TEMP:  66; 6HR MAX TEMP:  85;

SCOTTSDALE     CLEAR     72  25  17 NE3       29.79R
6HR MIN TEMP:  72; 6HR MAX TEMP:  87;

MESA-GATEWAY   CLEAR     64  19  17 CALM      29.78S
$$

AZZ539-553-260700-
SOUTHWEST MARICOPA COUNTY AND PINAL COUNTY

CITY           SKY/WX    TMP DP  RH WIND       PRES   REMARKS
CASA GRANDE    NOT AVBL
GILA BEND      FAIR      66  10  11 S7        29.75R
6HR MIN TEMP:  66; 6HR MAX TEMP:  86;

$$

AZZ503-504-507>509-260700-
SOUTHEAST ARIZONA

CITY           SKY/WX    TMP DP  RH WIND       PRES   REMARKS
TUCSON         CLEAR     66  18  15 S6        29.86R
6HR MIN TEMP:  65; 6HR MAX TEMP:  85;

DAVIS-MONTHAN  CLEAR     63  19  18 S6        29.84R
6HR MIN TEMP:  63; 6HR MAX TEMP:  84;

NOGALES        CLEAR     58  26  29 E6        29.91S
6HR MIN TEMP:  57; 6HR MAX TEMP:  82;

SIERRA VISTA   CLEAR     63  16  16 W13       29.95R
6HR MIN TEMP:  63; 6HR MAX TEMP:  79;

DOUGLAS        CLEAR     63  30  28 SW3       29.92R
6HR MIN TEMP:  60; 6HR MAX TEMP:  81;

SAFFORD          N/A     67  13  12 NW10      29.82S
6HR MIN TEMP:  63; 6HR MAX TEMP:  83;

$$

AZZ532-260700-
SOUTHWEST ARIZONA

CITY           SKY/WX    TMP DP  RH WIND       PRES   REMARKS
YUMA           CLEAR     72  26  18 W5        29.75S
6HR MIN TEMP:  72; 6HR MAX TEMP:  90;

$$

CAZ041-043-047-048-061-525>527-560>570-260700-
SOUTHERN CALIFORNIA

CITY           SKY/WX    TMP DP  RH WIND       PRES   REMARKS
DOWNTOWN L.A.  CLEAR     70  45  40 CALM      29.79S
6HR MIN TEMP:  70; 6HR MAX TEMP:  83;

L.A. AIRPORT   PTCLDY    69  58  67 S3        29.80R
6HR MIN TEMP:  68; 6HR MAX TEMP:  78;

SAN DIEGO      PTCLDY    69  47  45 CALM      29.83R
6HR MIN TEMP:  69; 6HR MAX TEMP:  77;

BURBANK        CLEAR     71  29  21 CALM      29.81S
6HR MIN TEMP:  70; 6HR MAX TEMP:  82;

ONTARIO        PTCLDY    69  28  21 CALM      29.83S
6HR MIN TEMP:  67; 6HR MAX TEMP:  87;

RIVERSIDE      CLEAR     67  34  29 E5        29.83S
6HR MIN TEMP:  66; 6HR MAX TEMP:  88;

PALM SPRINGS   CLEAR     78  27  15 NW7       29.81S
6HR MIN TEMP:  77; 6HR MAX TEMP:  89;

EL CENTRO NAS  PTCLDY    68  19  15 W7        29.77S
6HR MIN TEMP:  67; 6HR MAX TEMP:  90;

IMPERIAL       CLEAR     68  32  26 W6        29.75R
6HR MIN TEMP:  67; 6HR MAX TEMP:  90;

BLYTHE         PTCLDY    72  23  16 NW6       29.77R
6HR MIN TEMP:  71; 6HR MAX TEMP:  89;

NEEDLES        PTCLDY    75  21  13 W9        29.80S
6HR MIN TEMP:  74; 6HR MAX TEMP:  87;

$$

NVZ020-UTZ003-260700-
SOUTHERN NEVADA-UTAH

CITY           SKY/WX    TMP DP  RH WIND       PRES   REMARKS
LAS VEGAS      PTCLDY    70  27  20 NE8       29.90R
6HR MIN TEMP:  70; 6HR MAX TEMP:  78;

SALT LAKE CITY CLEAR     47  37  68 SW5       30.12S
6HR MIN TEMP:  47; 6HR MAX TEMP:  60;

$$

NMZ009-TXZ055-260700-
NEW MEXICO-WEST TEXAS

CITY           SKY/WX    TMP DP  RH WIND       PRES   REMARKS
ALBUQUERQUE    PTCLDY    62  50  64 E25G31    30.00S
6HR MIN TEMP:  62; 6HR MAX TEMP:  74;

EL PASO        CLEAR     71  30  21 NE3       29.87S
6HR MIN TEMP:  69; 6HR MAX TEMP:  84;

$$


........................KEY........................
SKY/WX - SKY CONDITION/WEATHER
TMP    - TEMPERATURE IN FAHRENHEIT
DP     - DEW POINT IN FAHRENHEIT
RH     - RELATIVE HUMIDITY IN PERCENT
WIND   - DIRECTION AND SPEED IN MILES PER HOUR (MPH)
VRB    - VARIABLE WIND DIRECTION
PRES   - MEAN SEA LEVEL PRESSURE IN INCHES OF MERCURY
         F - FALLING PRESSURE   R - RISING PRESSURE
         S - STEADY PRESSURE
VSB    - VISIBILITY IN MILES
HX     - HEAT INDEX IN FAHRENHEIT
WCI    - WIND CHILL INDEX IN FAHRENHEIT
TC     - TEMPERATURE IN CELSIUS WHICH IS ALSO KNOWN AS
         TEMPERATURE IN CENTIGRADE
AFB    - AIR FORCE BASE
         LUKE AFB IS LUKE AIR FORCE BASE
         DAVIS-MONTHAN IS DAVIS-MONTHAN AIR FORCE BASE
NAS    - NAVAL AIR STATION
         EL CENTRO NAS IS EL CENTRO NAVAL AIR STATION
N/A    - NOT AVAILABLE





USA.gov is the U.S. government's official web portal to all federal, state and local government web resources and services.